Weather History for Monett, MO

Change the Weather History Date:

Friday, April 12, 2013

  Actual Average (KJLN) Record (KJLN)
Temperature  
Mean Temperature 42 °F 57 °F  
Max Temperature 53 °F 69 °F 96 °F (1972)
Min Temperature 32 °F 46 °F 23 °F (1957)
Degree Days  
Heating Degree Days 22 9  
Month to date heating degree days 124  
Since 1 July heating degree days 3886  
Cooling Degree Days 0 1  
Month to date cooling degree days 12  
Year to date cooling degree days 22  
Moisture  
Dew Point 32 °F    
Average Humidity 69    
Maximum Humidity 93    
Minimum Humidity 47    
Precipitation  
Precipitation 0.00 in 0.14 in 1.21 in (2009)
Month to date precipitation 1.52  
Year to date precipitation 9.29  
Sea Level Pressure  
Sea Level Pressure 29.92 in    
Wind  
Wind Speed 7 mph (West)    
Max Wind Speed 18 mph    
Max Gust Speed 23 mph    
Visibility 10 miles    
Events      
T = Trace of Precipitation, MM = Missing Value Source: NWS Daily Summary

Daily Weather History Graph

Daily Weather History Graph

Search for Another Location

Airport:

Trip Planner

Search our weather history database for the weather conditions in past years. The results will help you decide how hot, cold, wet, or windy it might be!

Date:

Astronomy

Apr. 12, 2013 Rise Set
Actual Time 6:45 AM CDT 7:48 PM CDT
Civil Twilight 6:19 AM CDT 8:15 PM CDT
Nautical Twilight 5:47 AM CDT 8:46 PM CDT
Astronomical Twilight 5:14 AM CDT 9:19 PM CDT
Moon 7:59 AM CDT (4/12) 10:15 PM CDT (4/12)
Length of Visible Light 13h 55m
Length of Day
13h 02m
Waxing Crescent, 5% of the Moon is Illuminated
Apr 12
Waxing Crescent
Apr 18
First Quarter
Apr 25
Full
May 2
Last Quarter
May 9
New

Hourly Weather History & Observations

Time (CDT) Temp. Windchill Dew Point Humidity Pressure Visibility Wind Dir Wind Speed Gust Speed Precip Events Conditions
12:15 AM 35.6 °F 31.7 °F 32.0 °F 87% 29.79 in 10.0 mi SW 4.6 mph - N/A   Clear
12:35 AM 35.6 °F 30.7 °F 32.0 °F 87% 29.79 in 10.0 mi SSW 5.8 mph - N/A   Clear
12:55 AM 35.6 °F 30.7 °F 30.2 °F 81% 29.79 in 10.0 mi SW 5.8 mph - N/A   Clear
1:15 AM 35.6 °F 29.9 °F 32.0 °F 87% 29.79 in 10.0 mi SW 6.9 mph - N/A   Clear
1:35 AM 35.6 °F 30.7 °F 32.0 °F 87% 29.79 in 10.0 mi SW 5.8 mph - N/A   Clear
1:55 AM 35.6 °F 31.7 °F 30.2 °F 81% 29.79 in 10.0 mi SSW 4.6 mph - N/A   Clear
2:15 AM 35.6 °F 31.7 °F 30.2 °F 81% 29.79 in 10.0 mi SSW 4.6 mph - N/A   Clear
2:35 AM 35.6 °F 30.7 °F 32.0 °F 87% 29.79 in 10.0 mi WSW 5.8 mph - N/A   Clear
2:55 AM 33.8 °F 29.6 °F 32.0 °F 93% 29.80 in 10.0 mi West 4.6 mph - N/A   Clear
3:15 AM 33.8 °F 28.6 °F 32.0 °F 93% 29.80 in 10.0 mi West 5.8 mph - N/A   Clear
3:35 AM 33.8 °F 28.6 °F 32.0 °F 93% 29.80 in 10.0 mi West 5.8 mph - N/A   Clear
3:55 AM 33.8 °F 29.6 °F 32.0 °F 93% 29.81 in 10.0 mi West 4.6 mph - N/A   Scattered Clouds
4:15 AM 33.8 °F 30.8 °F 32.0 °F 93% 29.82 in 10.0 mi WSW 3.5 mph - N/A   Mostly Cloudy
4:35 AM 33.8 °F 30.8 °F 32.0 °F 93% 29.83 in 10.0 mi West 3.5 mph - N/A   Mostly Cloudy
4:55 AM 33.8 °F 29.6 °F 32.0 °F 93% 29.84 in 10.0 mi WNW 4.6 mph - N/A   Overcast
5:15 AM 33.8 °F 29.6 °F 32.0 °F 93% 29.85 in 10.0 mi West 4.6 mph - N/A   Scattered Clouds
5:35 AM 33.8 °F 29.6 °F 32.0 °F 93% 29.86 in 10.0 mi West 4.6 mph - N/A   Clear
5:55 AM 33.8 °F 27.7 °F 30.2 °F 87% 29.86 in 10.0 mi West 6.9 mph - N/A   Clear
6:15 AM 33.8 °F 28.6 °F 30.2 °F 87% 29.87 in 10.0 mi West 5.8 mph - N/A   Clear
6:35 AM 33.8 °F 27.7 °F 30.2 °F 87% 29.87 in 10.0 mi WNW 6.9 mph - N/A   Clear
6:55 AM 32.0 °F 26.4 °F 30.2 °F 93% 29.88 in 10.0 mi WNW 5.8 mph - N/A   Clear
7:15 AM 32.0 °F 26.4 °F 28.4 °F 87% 29.88 in 10.0 mi West 5.8 mph - N/A   Clear
7:35 AM 33.8 °F 27.7 °F 30.2 °F 87% 29.89 in 10.0 mi West 6.9 mph - N/A   Clear
7:55 AM 33.8 °F 27.7 °F 30.2 °F 87% 29.90 in 10.0 mi WSW 6.9 mph - N/A   Clear
8:15 AM 35.6 °F 28.6 °F 30.2 °F 81% 29.91 in 10.0 mi West 9.2 mph - N/A   Clear
8:35 AM 35.6 °F 27.5 °F 30.2 °F 81% 29.91 in 10.0 mi West 11.5 mph - N/A   Clear
8:55 AM 37.4 °F 28.9 °F 30.2 °F 75% 29.92 in 10.0 mi West 13.8 mph - N/A   Clear
9:15 AM 37.4 °F 29.3 °F 30.2 °F 75% 29.93 in 10.0 mi West 12.7 mph - N/A   Scattered Clouds
9:35 AM 37.4 °F 28.2 °F 30.2 °F 75% 29.93 in 10.0 mi West 16.1 mph - N/A   Mostly Cloudy
9:55 AM 39.2 °F 31.2 °F 30.2 °F 70% 29.94 in 10.0 mi West 13.8 mph - N/A   Scattered Clouds
10:15 AM 39.2 °F 30.8 °F 28.4 °F 65% 29.94 in 10.0 mi WNW 15.0 mph - N/A   Clear
10:35 AM 41.0 °F 33.9 °F 30.2 °F 65% 29.95 in 10.0 mi WNW 12.7 mph 20.7 mph N/A   Clear
10:55 AM 41.0 °F 32.5 °F 30.2 °F 65% 29.96 in 10.0 mi West 17.3 mph - N/A   Clear
11:15 AM 42.8 °F 34.8 °F 30.2 °F 61% 29.96 in 10.0 mi West 17.3 mph - N/A   Clear
11:35 AM 42.8 °F 36.6 °F 32.0 °F 66% 29.97 in 10.0 mi West 11.5 mph 19.6 mph N/A   Clear
11:55 AM 44.6 °F 37.4 °F 32.0 °F 61% 29.97 in 10.0 mi West 16.1 mph 21.9 mph N/A   Clear
12:15 PM 44.6 °F 38.1 °F 32.0 °F 61% 29.97 in 10.0 mi WNW 13.8 mph - N/A   Clear
12:35 PM 44.6 °F 37.4 °F 32.0 °F 61% 29.97 in 10.0 mi West 16.1 mph 21.9 mph N/A   Clear
12:55 PM 46.4 °F 39.2 °F 32.0 °F 57% 29.97 in 10.0 mi WNW 18.4 mph 21.9 mph N/A   Clear
1:15 PM 48.2 °F - 32.0 °F 54% 29.97 in 10.0 mi WNW 15.0 mph 20.7 mph N/A   Clear
1:35 PM 48.2 °F - 32.0 °F 54% 29.96 in 10.0 mi NW 13.8 mph 20.7 mph N/A   Clear
1:55 PM 50.0 °F - 32.0 °F 50% 29.96 in 10.0 mi WNW 12.7 mph - N/A   Clear
2:15 PM 50.0 °F - 32.0 °F 50% 29.97 in 10.0 mi WNW 12.7 mph - N/A   Clear
2:35 PM 50.0 °F - 32.0 °F 50% 29.97 in 10.0 mi NW 13.8 mph 21.9 mph N/A   Clear
2:55 PM 51.8 °F - 33.8 °F 50% 29.96 in 10.0 mi West 12.7 mph 18.4 mph N/A   Clear
3:15 PM 51.8 °F - 32.0 °F 47% 29.96 in 10.0 mi WNW 18.4 mph - N/A   Clear
3:35 PM 51.8 °F - 32.0 °F 47% 29.96 in 10.0 mi West 11.5 mph 23.0 mph N/A   Clear
3:55 PM 51.8 °F - 32.0 °F 47% 29.96 in 10.0 mi West 11.5 mph - N/A   Clear
4:15 PM 51.8 °F - 33.8 °F 50% 29.96 in 10.0 mi West 12.7 mph 18.4 mph N/A   Clear
4:35 PM 51.8 °F - 33.8 °F 50% 29.95 in 10.0 mi West 12.7 mph - N/A   Clear
4:55 PM 53.6 °F - 33.8 °F 47% 29.96 in 10.0 mi WNW 13.8 mph - N/A   Clear
5:15 PM 51.8 °F - 33.8 °F 50% 29.96 in 10.0 mi West 11.5 mph - N/A   Clear
5:35 PM 51.8 °F - 33.8 °F 50% 29.95 in 10.0 mi NW 11.5 mph - N/A   Clear
5:55 PM 51.8 °F - 32.0 °F 47% 29.95 in 10.0 mi NW 11.5 mph - N/A   Clear
6:15 PM 51.8 °F - 33.8 °F 50% 29.95 in 10.0 mi NW 10.4 mph - N/A   Clear
6:35 PM 51.8 °F - 32.0 °F 47% 29.95 in 10.0 mi NW 8.1 mph - N/A   Clear
6:55 PM 50.0 °F - 32.0 °F 50% 29.95 in 10.0 mi NW 5.8 mph - N/A   Clear
7:15 PM 50.0 °F - 33.8 °F 54% 29.96 in 10.0 mi WNW 5.8 mph - N/A   Clear
7:35 PM 48.2 °F - 33.8 °F 58% 29.96 in 10.0 mi West 4.6 mph - N/A   Clear
7:55 PM 46.4 °F 44.3 °F 33.8 °F 62% 29.96 in 10.0 mi West 4.6 mph - N/A   Clear
8:15 PM 46.4 °F - 33.8 °F 62% 29.96 in 10.0 mi Calm Calm - N/A   Clear
8:35 PM 46.4 °F - 32.0 °F 57% 29.97 in 10.0 mi Calm Calm - N/A   Clear
8:55 PM 46.4 °F - 32.0 °F 57% 29.97 in 10.0 mi Calm Calm - N/A   Scattered Clouds
9:15 PM 44.6 °F - 32.0 °F 61% 29.99 in 10.0 mi Calm Calm - N/A   Clear
9:35 PM 44.6 °F - 32.0 °F 61% 30.00 in 10.0 mi Calm Calm - N/A   Clear
9:55 PM 44.6 °F - 32.0 °F 61% 30.00 in 10.0 mi Calm Calm - N/A   Clear
10:15 PM 42.8 °F - 32.0 °F 66% 30.01 in 10.0 mi Calm Calm - N/A   Clear
10:35 PM 42.8 °F - 32.0 °F 66% 30.01 in 10.0 mi Calm Calm - N/A   Clear
10:55 PM 41.0 °F 39.0 °F 32.0 °F 70% 30.02 in 10.0 mi South 3.5 mph - N/A   Clear
11:15 PM 41.0 °F 39.0 °F 32.0 °F 70% 30.03 in 10.0 mi SSW 3.5 mph - N/A   Clear
11:35 PM 41.0 °F - 33.8 °F 76% 30.03 in 10.0 mi Calm Calm - N/A   Clear
11:55 PM 42.8 °F - 33.8 °F 70% 30.03 in 10.0 mi Calm Calm - N/A   Clear